This is the latest recevied weather packets stored in our database for station/object SP1BMW-13. If no packets are shown the sender has not sent any weather packets the latest 1 day(s).
| Time | Temp. | Humidity | Pressure | Rain* | Wind** | Luminosity | Snow |
|---|---|---|---|---|---|---|---|
| 1778049172 | 10° C | 96% | 1004.7 hPa | 2.54 mm | 0.45 m/s, 355° | 56 W/m² | - |
| 1778048871 | 10° C | 96% | 1004.8 hPa | 2.79 mm | 0 m/s | 52 W/m² | - |
| 1778048812 | 10° C | 96% | 1004.7 hPa | 2.79 mm | 1.34 m/s, 8° | 45 W/m² | - |
| 1778048452 | 10° C | 96% | 1004.6 hPa | 2.79 mm | 0.89 m/s, 310° | 33 W/m² | - |
| 1778048392 | 10° C | 96% | 1004.7 hPa | 3.05 mm | 0.45 m/s, 319° | 32 W/m² | - |
| 1778048211 | 10° C | 96% | 1004.8 hPa | 2.79 mm | 0.89 m/s, 29° | 29 W/m² | - |
| 1778048152 | 10° C | 96% | 1004.6 hPa | 2.79 mm | 0.89 m/s, 301° | 30 W/m² | - |
| 1778048092 | 10° C | 96% | 1004.7 hPa | 3.3 mm | 0.89 m/s, 304° | 28 W/m² | - |
| 1778047971 | 10° C | 96% | 1004.7 hPa | 3.3 mm | 0.45 m/s, 12° | 25 W/m² | - |
| 1778047911 | 10° C | 96% | 1004.8 hPa | 3.05 mm | 0 m/s | 24 W/m² | - |
| 1778047791 | 10° C | 96% | 1004.9 hPa | 3.56 mm | 1.79 m/s, 346° | 33 W/m² | - |
| 1778047671 | 10° C | 96% | 1004.8 hPa | 3.56 mm | 0 m/s | 31 W/m² | - |
| 1778047611 | 10° C | 96% | 1004.8 hPa | 3.56 mm | 2.68 m/s, 317° | 28 W/m² | - |
| 1778047551 | 10° C | 96% | 1004.8 hPa | 3.56 mm | 0.45 m/s, 346° | 30 W/m² | - |
| 1778047431 | 10° C | 96% | 1004.8 hPa | 3.56 mm | 2.24 m/s, 353° | 30 W/m² | - |
| 1778047310 | 10° C | 96% | 1004.7 hPa | 3.56 mm | 1.34 m/s, 343° | 28 W/m² | - |
| 1778047070 | 10° C | 96% | 1005 hPa | 3.81 mm | 0.45 m/s, 331° | 27 W/m² | - |
| 1778047011 | 10° C | 96% | 1004.9 hPa | 3.81 mm | 0 m/s | 25 W/m² | - |
| 1778046890 | 10° C | 96% | 1005 hPa | 4.32 mm | 0.89 m/s, 19° | 25 W/m² | - |
| 1778046770 | 10° C | 96% | 1004.9 hPa | 4.06 mm | 0.45 m/s, 339° | 29 W/m² | - |
| 1778046710 | 10° C | 96% | 1004.8 hPa | 4.06 mm | 0.45 m/s, 345° | 29 W/m² | - |
| 1778046651 | 10° C | 96% | 1005 hPa | 4.06 mm | 0.89 m/s, 345° | 27 W/m² | - |
| 1778046471 | 10° C | 96% | 1005 hPa | 4.57 mm | 1.79 m/s, 20° | 26 W/m² | - |
| 1778046410 | 10° C | 96% | 1004.9 hPa | 4.57 mm | 0.89 m/s, 294° | 24 W/m² | - |
| 1778046351 | 10° C | 96% | 1004.9 hPa | 4.32 mm | 0.45 m/s, 317° | 21 W/m² | - |
* Rain latest hour (hover to see other rain measurements)
** Current wind speed in m/s (hover to see current wind gust speed)